Location: Emblem
(62.4273°N, 6.4710°E)
Time: 23:13:08
(UTC+02:00)

Transit 2A Rocket - Visible Passes

Search period start: 07 October 2024 00:00
Search period end: 17 October 2024 00:00
Orbit: 582 x 908 km, 66.7° (Epoch: 07 October)

Date Brightness Start Highest point End Pass type
(mag) Time Alt. Az. Time Alt. Az. Time Alt. Az.
07 Oct 5.8 00:39:30 10° WNW 00:44:53 56° NNW 00:44:53 56° NNW visible
07 Oct 6.9 02:22:30 10° WNW 02:24:37 23° WNW 02:24:37 23° WNW visible
07 Oct 5.5 20:29:18 10° SSW 20:35:12 53° SE 20:40:59 10° ENE visible
07 Oct 5.4 22:11:36 10° WSW 22:17:43 76° NNW 22:21:31 23° ENE visible
07 Oct 5.7 23:54:51 10° W 00:00:50 57° N 00:01:16 56° NNE visible
08 Oct 6.6 01:37:59 10° WNW 01:41:01 31° NW 01:41:01 31° NW visible
08 Oct 7.6 03:20:45 10° WNW 03:20:45 10° WNW 03:20:45 10° WNW visible
08 Oct 5.8 19:45:20 10° SSW 19:50:57 40° SE 19:56:28 10° ENE visible
08 Oct 5.3 21:27:03 10° WSW 21:33:11 89° NNW 21:37:57 17° ENE visible
08 Oct 5.7 23:10:10 10° W 23:16:11 59° N 23:17:42 45° NE visible
09 Oct 6.2 00:53:24 10° WNW 00:57:26 42° NW 00:57:26 42° NW visible
09 Oct 7.4 02:36:14 10° WNW 02:37:11 15° WNW 02:37:11 15° WNW visible
09 Oct 5.3 20:42:37 10° SW 20:48:43 76° SE 20:54:25 11° ENE visible
09 Oct 5.6 22:25:30 10° W 22:31:33 64° NNW 22:34:09 33° NE visible
10 Oct 5.8 00:08:47 10° WNW 00:13:54 54° NNW 00:13:54 54° NNW visible
10 Oct 7.1 01:51:43 10° WNW 01:53:39 21° WNW 01:53:39 21° WNW visible
10 Oct 5.4 19:58:21 10° SSW 20:04:20 60° SE 20:10:09 10° ENE visible
10 Oct 5.5 21:40:50 10° WSW 21:46:56 71° NNW 21:50:38 24° ENE visible
10 Oct 5.7 23:24:08 10° WNW 23:30:05 57° N 23:30:23 57° NNE visible
11 Oct 6.7 01:07:11 10° WNW 01:10:08 30° WNW 01:10:08 30° WNW visible
11 Oct 5.7 19:14:15 10° SSW 19:20:01 45° SE 19:25:38 10° ENE visible
11 Oct 5.3 20:56:14 10° WSW 21:02:21 83° NNW 21:07:07 16° ENE visible
11 Oct 5.7 22:39:26 10° W 22:45:24 58° N 22:46:52 45° NE visible
12 Oct 6.2 00:22:37 10° WNW 00:26:38 42° NW 00:26:38 42° NW visible
12 Oct 7.5 02:05:25 10° WNW 02:06:22 15° WNW 02:06:22 15° WNW visible
12 Oct 5.3 20:11:45 10° SW 20:17:51 82° SE 20:23:37 11° ENE visible
12 Oct 5.7 21:54:43 10° W 22:00:45 61° NNW 22:03:22 32° NE visible
12 Oct 5.8 23:38:00 10° WNW 23:43:07 55° NNW 23:43:07 55° NNW visible
13 Oct 7.1 01:20:53 10° WNW 01:22:52 22° WNW 01:22:52 22° WNW visible
13 Oct 5.4 19:27:22 10° SW 19:33:24 66° SE 19:39:15 10° ENE visible
13 Oct 5.5 21:10:02 10° WSW 21:16:06 68° NNW 21:19:52 23° ENE visible
13 Oct 5.6 22:53:20 10° WNW 22:59:16 58° N 22:59:37 57° NNE visible
14 Oct 6.7 00:36:20 10° WNW 00:39:23 31° WNW 00:39:23 31° WNW visible
14 Oct 5.4 20:25:23 10° WSW 20:31:29 78° NNW 20:36:23 15° ENE visible
14 Oct 5.7 22:08:38 10° W 22:14:35 57° N 22:16:07 44° NE visible
14 Oct 6.2 23:51:47 10° WNW 23:55:52 44° NW 23:55:52 44° NW visible
15 Oct 7.5 01:34:33 10° WNW 01:35:38 16° WNW 01:35:38 16° WNW visible
15 Oct 5.3 19:40:50 10° SW 19:46:56 89° SSE 19:52:48 10° ENE visible
15 Oct 5.7 21:23:55 10° W 21:29:54 59° N 21:32:38 31° ENE visible
15 Oct 5.7 23:07:09 10° WNW 23:12:23 59° NNW 23:12:23 59° NNW visible
16 Oct 7.1 00:50:01 10° WNW 00:52:08 23° WNW 00:52:08 23° WNW visible
16 Oct 5.4 18:56:22 10° SW 19:02:26 73° SE 19:08:17 10° ENE visible
16 Oct 5.6 20:39:12 10° W 20:45:13 64° NNW 20:49:09 21° ENE visible
16 Oct 5.5 22:22:29 10° WNW 22:28:24 59° N 22:28:54 57° NNE visible
